Weather History for Sedona, AZ

Change the Weather History Date:

Thursday, May 22, 2014

  Actual Average Record
Temperature  
Mean Temperature 66 °F -  
Max Temperature 78 °F 85 °F 95 °F (2012)
Min Temperature 53 °F 48 °F 53 °F (2014)
Growing Degree Days 16 (Base 50)    
Moisture  
Dew Point 15 °F    
Average Humidity 15    
Maximum Humidity 24    
Minimum Humidity 7    
Precipitation  
Precipitation 0.00 in - - ()
Sea Level Pressure  
Sea Level Pressure 30.01 in    
Wind  
Wind Speed 9 mph (SE)    
Max Wind Speed 26 mph    
Max Gust Speed 40 mph    
Visibility 9 miles    
Events      
Averages and records for this station are not official NWS values.
T = Trace of Precipitation, MM = Missing Value Source: NWS Daily Summary

Daily Weather History Graph

Daily Weather History Graph

Search for Another Location

Airport:

Trip Planner

Search our weather history database for the weather conditions in past years. The results will help you decide how hot, cold, wet, or windy it might be!

Date:

Astronomy

May. 22, 2014 Rise Set
Actual Time 5:19 AM MST 7:28 PM MST
Civil Twilight 4:50 AM MST 7:57 PM MST
Nautical Twilight 4:15 AM MST 8:32 PM MST
Astronomical Twilight 3:38 AM MST 9:10 PM MST
Moon 1:25 AM MST (5/22) 1:34 PM MST (5/22)
Length of Visible Light 15h 06m
Length of Day
14h 09m
Last Quarter, 36% of the Moon is Illuminated
May 22
Last Quarter
May 28
New
Jun 5
First Quarter
Jun 12
Full
Jun 19
Last Quarter

Hourly Weather History & Observations

Time (MST) Temp. Dew Point Humidity Pressure Visibility Wind Dir Wind Speed Gust Speed Precip Events Conditions
12:15 AM 59.0 °F 15.8 °F 19% 30.02 in 10.0 mi South 3.5 mph - N/A   Clear
12:35 AM 59.0 °F 14.0 °F 17% 30.01 in 10.0 mi SE 4.6 mph - N/A   Clear
12:55 AM 59.0 °F 15.8 °F 19% 30.00 in 10.0 mi SE 3.5 mph - N/A   Clear
1:15 AM 59.0 °F 15.8 °F 19% 30.00 in 10.0 mi Calm Calm - N/A   Clear
1:35 AM 57.2 °F 15.8 °F 20% 30.00 in 10.0 mi East 3.5 mph - N/A   Clear
1:55 AM 55.4 °F 15.8 °F 21% 30.00 in 5.0 mi NE 3.5 mph - N/A   Haze
2:15 AM 55.4 °F 15.8 °F 21% 30.00 in 4.0 mi NE 6.9 mph - N/A   Haze
2:35 AM 53.6 °F 15.8 °F 22% 30.00 in 4.0 mi NE 10.4 mph - N/A   Haze
2:55 AM 55.4 °F 15.8 °F 21% 30.00 in 5.0 mi NE 11.5 mph - N/A   Haze
3:15 AM 53.6 °F 15.8 °F 22% 30.01 in 4.0 mi NE 11.5 mph - N/A   Haze
3:35 AM 53.6 °F 15.8 °F 22% 30.00 in 4.0 mi NE 11.5 mph - N/A   Haze
3:55 AM 53.6 °F 15.8 °F 22% 30.00 in 5.0 mi NE 11.5 mph - N/A   Haze
4:15 AM 53.6 °F 17.6 °F 24% 30.00 in 5.0 mi NE 12.7 mph - N/A   Haze
4:35 AM 53.6 °F 17.6 °F 24% 30.00 in 5.0 mi NE 10.4 mph - N/A   Haze
4:55 AM 53.6 °F 17.6 °F 24% 30.00 in 7.0 mi NE 12.7 mph - N/A   Clear
5:15 AM 53.6 °F 17.6 °F 24% 30.00 in 5.0 mi NE 11.5 mph - N/A   Haze
5:35 AM 53.6 °F 17.6 °F 24% 30.00 in 5.0 mi NE 10.4 mph 16.1 mph N/A   Haze
5:55 AM 53.6 °F 17.6 °F 24% 30.01 in 5.0 mi NE 10.4 mph - N/A   Haze
6:15 AM 53.6 °F 17.6 °F 24% 30.01 in 4.0 mi NE 9.2 mph - N/A   Haze
6:35 AM 55.4 °F 17.6 °F 23% 30.02 in 4.0 mi NE 10.4 mph - N/A   Haze
6:55 AM 59.0 °F 19.4 °F 22% 30.02 in 4.0 mi NE 8.1 mph - N/A   Haze
7:15 AM 60.8 °F 19.4 °F 20% 30.02 in 4.0 mi ENE 4.6 mph - N/A   Haze
7:35 AM 64.4 °F 19.4 °F 18% 30.02 in 5.0 mi East 5.8 mph - N/A   Haze
7:55 AM 66.2 °F 17.6 °F 15% 30.03 in 7.0 mi ESE 5.8 mph - N/A   Clear
8:15 AM 68.0 °F 17.6 °F 15% 30.03 in 10.0 mi SSE 8.1 mph - N/A   Clear
8:35 AM 69.8 °F 19.4 °F 15% 30.03 in 10.0 mi SSE 8.1 mph - N/A   Clear
8:55 AM 71.6 °F 17.6 °F 13% 30.04 in 10.0 mi South 10.4 mph - N/A   Clear
9:15 AM 73.4 °F 19.4 °F 13% 30.04 in 10.0 mi South 12.7 mph 21.9 mph N/A   Clear
9:55 AM 73.4 °F 19.4 °F 13% 30.04 in 10.0 mi SSW 9.2 mph - N/A   Clear
10:35 AM 73.4 °F 17.6 °F 12% 30.04 in 10.0 mi SSE 15.0 mph 21.9 mph N/A   Clear
11:15 AM 75.2 °F 17.6 °F 11% 30.03 in 10.0 mi South 18.4 mph 25.3 mph N/A   Clear
11:35 AM 77.0 °F 17.6 °F 11% 30.04 in 10.0 mi South 9.2 mph 24.2 mph N/A   Clear
11:55 AM 77.0 °F 14.0 °F 9% 30.03 in 10.0 mi South 15.0 mph 26.5 mph N/A   Clear
12:15 PM 77.0 °F 15.8 °F 10% 30.02 in 10.0 mi SSE 20.7 mph 26.5 mph N/A   Clear
12:35 PM 77.0 °F 17.6 °F 11% 30.02 in 10.0 mi South 19.6 mph 26.5 mph N/A   Clear
12:55 PM 78.8 °F 15.8 °F 9% 30.02 in 10.0 mi South 15.0 mph 27.6 mph N/A   Clear
1:15 PM 77.0 °F 14.0 °F 9% 30.02 in 10.0 mi South 13.8 mph 32.2 mph N/A   Clear
1:35 PM 78.8 °F 14.0 °F 9% 30.01 in 10.0 mi SSW 24.2 mph 32.2 mph N/A   Clear
1:55 PM 77.0 °F 14.0 °F 9% 30.01 in 10.0 mi SSW 17.3 mph 34.5 mph N/A   Clear
2:15 PM 77.0 °F 12.2 °F 9% 30.00 in 10.0 mi South 19.6 mph 32.2 mph N/A   Clear
2:35 PM 77.0 °F 12.2 °F 9% 29.99 in 10.0 mi SSE 19.6 mph 34.5 mph N/A   Clear
2:55 PM 77.0 °F 10.4 °F 8% 29.99 in 10.0 mi SSE 15.0 mph 28.8 mph N/A   Clear
3:15 PM 77.0 °F 8.6 °F 7% 29.99 in 10.0 mi South 12.7 mph 32.2 mph N/A   Clear
3:35 PM 77.0 °F 8.6 °F 7% 29.99 in 10.0 mi South 17.3 mph 36.8 mph N/A   Clear
3:55 PM 77.0 °F 12.2 °F 9% 29.97 in 10.0 mi SSE 25.3 mph 40.3 mph N/A   Clear
4:15 PM 77.0 °F 10.4 °F 8% 29.98 in 10.0 mi South 26.5 mph 34.5 mph N/A   Clear
4:35 PM 75.2 °F 12.2 °F 9% 29.98 in 10.0 mi South 23.0 mph 35.7 mph N/A   Clear
4:55 PM 73.4 °F 12.2 °F 10% 29.98 in 10.0 mi South 21.9 mph 31.1 mph N/A   Clear
5:15 PM 73.4 °F 14.0 °F 10% 29.98 in 10.0 mi South 15.0 mph 26.5 mph N/A   Clear
5:35 PM 73.4 °F 14.0 °F 10% 29.98 in 10.0 mi SW 18.4 mph 27.6 mph N/A   Clear
5:55 PM 71.6 °F 14.0 °F 11% 29.98 in 10.0 mi SW 19.6 mph 28.8 mph N/A   Clear
6:15 PM 71.6 °F 15.8 °F 12% 29.98 in 10.0 mi SSW 13.8 mph 29.9 mph N/A   Clear
6:35 PM 69.8 °F 14.0 °F 12% 29.99 in 10.0 mi SSW 15.0 mph 27.6 mph N/A   Clear
6:55 PM 69.8 °F 12.2 °F 11% 30.00 in 10.0 mi WSW 9.2 mph 16.1 mph N/A   Clear
7:15 PM 68.0 °F 12.2 °F 12% 30.00 in 10.0 mi WSW 10.4 mph - N/A   Clear
7:35 PM 68.0 °F 10.4 °F 11% 30.01 in 10.0 mi WSW 10.4 mph - N/A   Clear
7:55 PM 66.2 °F 10.4 °F 11% 30.02 in 10.0 mi SW 4.6 mph - N/A   Clear
8:15 PM 64.4 °F 10.4 °F 12% 30.03 in 10.0 mi WSW 3.5 mph - N/A   Clear
8:35 PM 64.4 °F 10.4 °F 12% 30.04 in 10.0 mi Calm Calm - N/A   Clear
8:55 PM 64.4 °F 10.4 °F 12% 30.04 in 10.0 mi Calm Calm - N/A   Clear
9:15 PM 64.4 °F 10.4 °F 12% 30.04 in 10.0 mi Calm Calm - N/A   Clear
9:35 PM 62.6 °F 10.4 °F 13% 30.05 in 10.0 mi Calm Calm - N/A   Clear
9:55 PM 64.4 °F 10.4 °F 12% 30.05 in 10.0 mi ENE 5.8 mph - N/A   Clear
10:15 PM 62.6 °F 10.4 °F 13% 30.04 in 10.0 mi NNE 3.5 mph - N/A   Clear
10:35 PM 60.8 °F 10.4 °F 14% 30.04 in 10.0 mi NE 8.1 mph - N/A   Clear
10:55 PM 60.8 °F 10.4 °F 14% 30.04 in 10.0 mi NE 9.2 mph - N/A   Clear
11:15 PM 62.6 °F 12.2 °F 14% 30.04 in 10.0 mi NE 6.9 mph - N/A   Clear
11:35 PM 60.8 °F 12.2 °F 15% 30.03 in 10.0 mi NE 6.9 mph - N/A   Clear
11:55 PM 60.8 °F 14.0 °F 16% 30.04 in 10.0 mi East 5.8 mph - N/A   Clear